Location: Pilipovskiye Korichintsy
(49.1833°N, 27.4667°E)
Time: 23:56:33
(UTC+00:00)

Lacrosse 5 - Pass Details

Date: 27 October 2020
Orbit: 714 x 725 km, 57.0° (Epoch: 30 November)

Event Time Altitude Azimuth Distance (km) Brightness Sun altitude
Rises 18:18:32 0° 302° (WNW) 3,121 6.2 -33.2°
Reaches altitude 10° 18:20:58 10° 307° (NW) 2,199 5.1 -33.6°
Enters shadow 18:23:33 29° 321° (NW) 1,308 3.6 -33.9°
